NOAA NWS Hourly Roundups by Site

Regional Weather Roundup for Bismarck, ND

To Select Another Site Choose from List

Select Site:  

000
ASUS43 KBIS 151410
RWRBIS

NWR BROADCAST TEXT
NATIONAL WEATHER SERVICE BISMARCK ND
800 AM CST FRI JAN 15 2021

NOTE: "FAIR" INDICATES FEW OR NO CLOUDS BELOW 12,000 FEET WITH NO
SIGNIFICANT WEATHER AND/OR OBSTRUCTIONS TO VISIBILITY.


CITY           SKY/WX    TMP DP  RH WIND       PRES   REMARKS
WILLISTON      CLOUDY    21  16  81 NW21G26   30.20R WCI   5
MINOT          CLOUDY    25  18  74 NW17G30   30.12R WCI  12
MINOT AFB      CLOUDY    24  19  80 N20       30.11R WCI   9
BISMARCK       CLOUDY    26  19  74 NW25G44   30.08R WCI  11
DICKINSON      CLOUDY    22  15  75 NW26G36   30.11R WCI   5
GARRISON         N/A     22  18  85 N26G38    30.10R WCI   5
HETTINGER ARPT CLOUDY    23  16  74 NW26G41   30.11R WCI   6
JAMESTOWN      CLOUDY    27  21  78 N29G41    29.91R WCI  11
CARRINGTON     CLOUDY    27  23  86 NW21G29   29.99R WCI  13
HAZEN          CLOUDY    23  19  86 NW21G29   30.15S WCI   8
MANDAN         CLOUDY    23  21  93 N26G43    30.05R WCI   6
OAKES          CLOUDY    27  23  86 N32G43    29.86R WCI  10
RUGBY          CLOUDY    23  21  93 NW20G28   30.04R WCI   8
STANLEY        CLOUDY    19  19 100 NW21G29   30.14R WCI   3
TIOGA          CLOUDY    19  19 100 NW22G33   30.18R FOG     WCI   3
WATFORD CITY   CLOUDY    23  19  86 NW15G25   30.20S WCI  10
$$

CITY           SKY/WX    TMP DP  RH WIND       PRES   REMARKS
GRAND FORKS    LGT SNOW  28  24  85 N30G40    29.88R FOG     WCI  12
GRAND FORKS AF FLURRIES  28  28  99 N26G32    29.90R WCI  13
DEVILS LAKE    FLURRIES  25  23  92 N22G28    29.97R WCI  10
FARGO          LGT SNOW  29  26  89 N29G39    29.83R FOG     WCI  14
CANDO          CLOUDY    25  25 100 NW17G24   30.02R WCI  11
CAVALIER       LGT RAIN  25  23  93 N25G38    29.94R WCI   9
GRAFTON        CLOUDY    27  25  93 N29G37    29.93R FOG     WCI  11
GWINNER        CLOUDY    28  28 100 N32G41    29.83R WCI  12
LANGDON        CLOUDY    23  23 100 N28       29.93R WCI   6
ROLLA          CLOUDY    23  23 100 NW30G39   30.01R WCI   5
WALHALLA       MIX PCPN  25  25 100 NW22G33   29.97R WCI  10
$$

CITY           SKY/WX    TMP DP  RH WIND       PRES   REMARKS
ABERDEEN       CLOUDY    29  21  72 N33G47    29.88R WCI  13
MOBRIDGE       CLOUDY    27  17  66 N29G43    29.99R WCI  11
RAPID CITY     CLEAR     23  10  57 NW33G49   30.08F WCI   5
GLASGOW        PTCLDY    16  11  80 SW3       30.25F
SIDNEY         CLOUDY    22  17  81 NW13      30.25S WCI  10
WOLF POINT     PTCLDY    17  12  80 SW6       30.27F WCI   9
GLENDIVE       CLEAR     19  15  84 NW15      30.23S WCI   5
MILES CITY     PTCLDY    15   7  70 W9        30.27S WCI   3
BAKER          CLOUDY    18  12  77 W14       30.21S WCI   4
$$

CITY           SKY/WX    TMP DP  RH WIND       PRES   REMARKS
BILLINGS       PTCLDY    23   8  52 SW15      30.26F WCI  10
GREAT FALLS    MOCLDY    37  14  38 SW20G29   30.13F
REGINA         LGT SNOW  18  16  93 NW9       30.22F DRFTSNOWWCI   6
ESTEVAN          N/A     19  16  86 NW22G31   30.17  WCI   3
$$



 

View Past Reports for Bismarck, ND.

Products Courtesy of NOAA-NWS
NWS Information Parsing Script by Ken True at Saratoga Weather - Script by SE Lincoln Weather.